EW1773 Weather Reports


time (UTC)temp
F
wind
direction
speed
knots
gust
knots
rain 1hr
in
rain 24hr
in
rain mn
in
humidity
%
barometer
mb
20260505121756 56 354 0.0 1.7 0.00 0.00 0.00 100 1013.7
20260505121256 56 39 0.0 1.7 0.00 0.00 0.00 100 1013.6
20260505120755 56 37 0.0 2.6 0.00 0.00 0.00 100 1013.7
20260505120256 56 33 0.0 2.6 0.00 0.00 0.00 100 1013.6
20260505115756 56 73 0.0 1.7 0.00 0.00 0.00 100 1013.6
20260505115255 56 354 0.0 4.3 0.00 0.00 0.00 100 1013.6
20260505114754 56 114 0.0 4.3 0.00 0.00 0.00 100 1013.5
20260505114254 56 347 0.0 0.9 0.00 0.00 0.00 100 1013.4
20260505113754 56 347 0.0 0.9 0.00 0.00 0.00 100 1013.5
20260505113523 56 60 0.0 0.9 0.00 0.00 0.00 100 1013.5
20260505112754 56 59 0.0 0.9 0.00 0.00 0.00 100 1013.4
20260505112254 56 53 0.0 1.7 0.00 0.00 0.00 100 1013.4
20260505112015 56 54 0.0 1.7 0.00 0.00 0.00 100 1013.3
20260505111254 56 27 0.0 0.9 0.00 0.00 0.00 100 1013.3
20260505110754 56 22 0.0 0.9 0.00 0.00 0.00 100 1013.3
20260505110254 56 316 0.0 0.9 0.00 0.00 0.00 100 1013.3
20260505101753 56 49 0.0 1.7 0.00 0.00 0.00 100 1013.0
20260505101253 55 24 0.0 1.7 0.00 0.00 0.00 100 1012.9
20260505100754 55 37 0.0 2.6 0.00 0.00 0.00 100 1012.9
20260505100254 55 74 0.0 2.6 0.00 0.00 0.00 100 1012.9
20260505100017 55 120 0.0 0.9 0.00 0.00 0.00 100 1012.9
20260505095252 55 122 0.0 0.9 0.00 0.00 0.00 100 1012.9
20260505094752 55 8 0.0 0.9 0.00 0.00 0.00 100 1012.8
20260505094252 56 8 0.0 0.9 0.00 0.00 0.00 100 1012.7
20260505093750 56 14 0.0 1.7 0.00 0.00 0.00 100 1012.6
20260505093250 56 336 0.0 1.7 0.00 0.00 0.00 100 1012.5
20260505092750 56 308 0.0 0.0 0.00 0.00 0.00 100 1012.4
20260505092251 56 307 0.0 0.0 0.00 0.00 0.00 100 1012.4
20260505091750 56 306 0.0 0.0 0.00 0.00 0.00 100 1012.4
20260505091250 56 306 0.0 0.0 0.00 0.00 0.00 100 1012.4
20260505090750 56 359 0.0 1.7 0.00 0.00 0.00 100 1012.4
20260505090509 56 359 0.0 1.7 0.00 0.00 0.00 100 1012.3
20260505085748 56 359 0.0 0.0 0.00 0.00 0.00 100 1012.3
20260505085248 56 308 0.0 0.0 0.00 0.00 0.00 100 1012.2
20260505084748 56 308 0.0 0.0 0.00 0.00 0.00 100 1012.2
20260505084248 57 308 0.0 1.7 0.00 0.00 0.00 100 1012.1
20260505083748 57 359 0.0 1.7 0.00 0.00 0.00 100 1012.1
20260505083248 57 308 0.0 0.9 0.00 0.00 0.00 100 1012.2
20260505082748 57 308 0.0 1.7 0.00 0.00 0.00 100 1012.2
20260505082249 57 308 0.0 1.7 0.00 0.00 0.00 100 1012.2
20260505081748 57 125 0.0 1.7 0.00 0.00 0.00 100 1012.2
20260505081249 57 313 0.0 0.9 0.00 0.00 0.00 100 1012.3
20260505080749 57 326 0.0 0.9 0.00 0.00 0.00 100 1012.2
20260505080249 57 348 0.0 1.7 0.00 0.00 0.00 100 1012.2
20260505075749 57 100 0.0 1.7 0.00 0.00 0.00 100 1012.2
20260505075249 57 319 0.0 1.7 0.00 0.00 0.00 100 1012.3
20260505074748 58 319 0.0 1.7 0.00 0.00 0.00 100 1012.2
20260505074248 58 329 0.0 1.7 0.00 0.00 0.00 100 1012.2
20260505073748 58 278 0.0 0.9 0.00 0.00 0.00 100 1012.1
20260505073248 58 359 0.0 0.9 0.00 0.00 0.00 100 1012.1
20260505072748 58 212 0.0 2.6 0.00 0.00 0.00 100 1012.0
20260505072507 58 212 0.0 2.6 0.00 0.00 0.00 100 1012.0
20260505071746 58 125 0.0 0.0 0.00 0.00 0.00 100 1012.0
20260505071246 59 112 0.0 0.0 0.00 0.00 0.00 100 1012.0
20260505070746 59 112 0.0 0.9 0.00 0.00 0.00 100 1011.8
20260505070507 59 112 0.0 0.9 0.00 0.00 0.00 100 1011.7
20260505065746 59 112 0.0 0.9 0.00 0.00 0.00 100 1011.7
20260505065247 59 112 0.0 1.7 0.00 0.00 0.00 100 1011.7
20260505064747 59 110 0.0 1.7 0.00 0.00 0.00 100 1011.6
20260505064247 60 9 0.0 0.9 0.00 0.00 0.00 100 1011.5
20260505063747 60 320 0.0 0.9 0.00 0.00 0.00 100 1011.4
20260505063247 60 262 0.0 0.0 0.00 0.00 0.00 100 1011.4
20260505062747 60 293 0.0 0.0 0.00 0.00 0.00 100 1011.2
20260505062245 60 291 0.0 2.6 0.00 0.00 0.00 100 1011.2
20260505061745 60 291 0.0 2.6 0.00 0.00 0.00 100 1011.1
20260505061245 61 40 0.0 0.9 0.00 0.00 0.00 100 1011.1
20260505060745 61 332 0.0 0.9 0.00 0.00 0.00 100 1010.9
20260505060245 61 332 0.0 0.9 0.00 0.00 0.00 100 1010.8
20260505055744 61 332 0.0 0.0 0.00 0.00 0.00 100 1010.8
20260505055244 62 183 0.0 0.0 0.00 0.00 0.00 100 1010.8
20260505054744 62 181 0.0 0.0 0.00 0.00 0.00 100 1010.7
20260505054244 62 183 0.0 0.9 0.00 0.00 0.00 100 1010.7
20260505053744 62 182 0.0 0.9 0.00 0.00 0.00 1 1010.7
20260505053244 62 179 0.0 0.9 0.00 0.00 0.00 1 1010.6
20260505053013 62 299 0.0 0.9 0.00 0.00 0.00 100 1010.6
20260505052503 63 297 0.0 0.9 0.00 0.00 0.00 2 1010.6
20260505051745 63 299 0.0 0.0 0.00 0.00 0.00 8 1010.6
20260505051507 63 298 0.0 0.0 0.00 0.00 0.00 8 1010.5
20260505050745 63 297 0.0 0.9 0.00 0.00 0.00 14 1010.5
20260505050509 64 297 0.0 1.7 0.00 0.00 0.00 15 1010.4
20260505041744 65 294 0.0 3.5 0.00 0.00 0.00 27 1010.1
20260505041243 65 331 0.0 3.5 0.00 0.00 0.00 26 1010.0
20260505040743 65 359 0.0 1.7 0.00 0.00 0.00 26 1009.9
20260505040244 65 348 0.0 1.7 0.00 0.00 0.00 24 1009.7
20260505035744 65 324 0.0 0.9 0.00 0.00 0.00 19 1009.7
20260505035243 65 359 0.0 1.7 0.00 0.00 0.00 16 1009.6
20260505034744 66 323 0.0 1.7 0.00 0.00 0.00 15 1009.6
20260505034244 66 324 0.0 1.7 0.00 0.00 0.00 14 1009.5
20260505033744 66 324 0.0 0.0 0.00 0.00 0.00 16 1009.4
20260505033244 66 324 0.0 0.0 0.00 0.00 0.00 18 1009.4
20260505032743 67 359 0.0 0.0 0.00 0.00 0.00 18 1009.3
20260505032243 67 324 0.0 0.0 0.00 0.00 0.00 20 1009.3
20260505031742 67 324 0.0 0.0 0.00 0.00 0.00 20 1009.3
20260505031512 67 324 0.0 0.0 0.00 0.00 0.00 29 1009.4
20260505031001 67 324 0.0 0.0 0.00 0.00 0.00 28 1009.3
20260505030241 68 359 0.0 0.9 0.00 0.00 0.00 27 1009.3
20260505025740 68 324 0.0 0.9 0.00 0.00 0.00 24 1009.2
20260505025240 69 359 0.0 0.0 0.00 0.00 0.00 28 1009.1
20260505024740 69 324 0.0 0.0 0.00 0.00 0.00 32 1009.0
20260505024240 69 323 0.0 0.0 0.00 0.00 0.00 39 1009.0
20260505023740 69 359 0.0 0.0 0.00 0.00 0.00 40 1009.0
20260505023240 69 359 0.0 0.0 0.00 0.00 0.00 43 1009.1
20260505023003 69 325 0.0 0.0 0.00 0.00 0.00 46 1009.2
20260505022459 69 324 0.0 0.0 0.00 0.00 0.00 43 1009.1
20260505021742 69 359 0.0 0.0 0.00 0.00 0.00 44 1009.1
20260505021240 69 324 0.0 0.0 0.00 0.00 0.00 46 1009.1
20260505020738 70 324 0.0 0.0 0.00 0.00 0.00 42 1009.2
20260505020238 69 324 0.0 0.0 0.00 0.00 0.00 44 1009.2
20260505015738 69 359 0.0 0.0 0.00 0.00 0.00 42 1009.2
20260505015238 69 324 0.0 1.7 0.00 0.00 0.00 39 1009.2
20260505015005 69 359 0.0 1.7 0.00 0.00 0.00 38 1009.1
20260505014501 69 45 0.0 0.0 0.00 0.00 0.00 33 1009.0
20260505013738 69 79 0.0 0.0 0.00 0.00 0.00 36 1009.0
20260505013238 69 79 0.0 0.0 0.00 0.00 0.00 35 1009.0
20260505012739 69 78 0.0 0.9 0.00 0.00 0.00 44 1009.1
20260505012238 70 78 0.0 0.9 0.00 0.00 0.00 31 1009.0
20260505011738 70 78 0.0 1.7 0.00 0.00 0.00 30 1009.1
20260505011239 70 81 0.0 1.7 0.00 0.00 0.00 40 1009.1
20260505010739 70 79 0.0 0.0 0.00 0.00 0.00 39 1009.1
20260505010239 70 77 0.0 0.0 0.00 0.00 0.00 38 1009.1
20260505005739 70 79 0.0 0.0 0.00 0.00 0.00 40 1009.1
20260505005239 70 79 0.0 0.0 0.00 0.00 0.00 39 1009.1
20260505004738 70 79 0.0 0.9 0.00 0.00 0.00 41 1009.1
20260505004238 70 79 0.0 0.9 0.00 0.00 0.00 41 1009.1
20260505003738 70 119 0.0 0.9 0.00 0.00 0.00 36 1009.1
20260505003728 70 120 0.0 0.9 0.00 0.00 0.00 38 1009.1
20260505002738 70 125 0.0 0.9 0.00 0.00 0.00 25 1009.0
20260505002238 70 122 0.0 0.9 0.00 0.00 0.00 35 1009.1
20260505001738 71 130 0.0 1.7 0.00 0.00 0.00 31 1009.0
20260505001238 71 129 0.0 1.7 0.00 0.00 0.00 38 1009.0
20260505000738 73 99 0.0 0.9 0.00 0.00 0.00 41 1009.0
20260505000238 74 100 0.0 0.9 0.00 0.00 0.00 54 1009.0
20260504235958 74 66 0.0 0.0 0.00 0.00 0.00 55 1009.0
20260504235238 74 66 0.0 0.0 0.00 0.00 0.00 55 1009.0
20260504234739 74 66 0.0 0.0 0.00 0.00 0.00 56 1009.1
20260504234457 74 66 0.0 0.0 0.00 0.00 0.00 55 1009.0
20260504233739 74 66 0.0 0.0 0.00 0.00 0.00 55 1009.1
20260504233238 74 65 0.0 0.0 0.00 0.00 0.00 56 1009.1
20260504233003 74 66 0.0 0.0 0.00 0.00 0.00 56 1009.1
20260504232238 74 66 0.0 0.9 0.00 0.00 0.00 55 1009.1
20260504231738 74 66 0.0 0.9 0.00 0.00 0.00 54 1009.1
20260504231238 74 47 0.0 1.7 0.00 0.00 0.00 56 1009.1
20260504230738 74 46 0.0 1.7 0.00 0.00 0.00 55 1009.1
20260504230239 74 45 0.0 0.9 0.00 0.00 0.00 56 1009.3
20260504225737 74 45 0.0 1.7 0.00 0.00 0.00 56 1009.4
20260504225723 74 45 0.0 1.7 0.00 0.00 0.00 55 1009.5
20260504224738 74 24 0.0 1.7 0.00 0.00 0.00 54 1009.5
20260504224237 74 76 0.0 1.7 0.00 0.00 0.00 56 1009.5
20260504223737 74 75 0.0 1.7 0.00 0.00 0.00 55 1009.6
20260504223237 73 67 0.0 0.9 0.00 0.00 0.00 53 1009.6
20260504222737 72 66 0.0 0.9 0.00 0.00 0.00 53 1009.7
20260504222238 73 65 0.0 0.9 0.00 0.00 0.00 47 1009.7
20260504221737 72 65 0.0 0.9 0.00 0.00 0.00 48 1009.8
20260504221236 72 93 0.0 1.7 0.00 0.00 0.00 40 1009.8
20260504220736 71 87 0.0 1.7 0.00 0.00 0.00 42 1009.9
20260504220236 71 87 0.0 1.7 0.00 0.00 0.00 30 1009.9
20260504215736 70 87 0.0 1.7 0.00 0.00 0.00 36 1010.0
20260504215236 70 86 0.9 2.6 0.00 0.00 0.00 26 1009.9
20260504214736 69 91 0.9 2.6 0.00 0.00 0.00 30 1010.0
20260504213735 69 127 0.0 2.6 0.00 0.00 0.00 24 1010.0
20260504213235 69 127 0.0 2.6 0.00 0.00 0.00 21 1010.1
20260504212736 69 100 0.0 1.7 0.00 0.00 0.00 34 1010.2
20260504212235 69 98 0.0 1.7 0.00 0.00 0.00 41 1010.3
20260504211736 70 97 0.9 1.7 0.00 0.00 0.00 43 1010.4
20260504211235 71 99 0.9 3.5 0.00 0.00 0.00 44 1010.3
20260504210736 71 98 0.9 3.5 0.00 0.00 0.00 44 1010.4
20260504210236 71 111 0.0 2.6 0.00 0.00 0.00 51 1010.4
20260504205736 71 110 0.0 1.7 0.00 0.00 0.00 54 1010.4
20260504205236 70 110 0.0 1.7 0.00 0.00 0.00 46 1010.4
20260504204736 70 131 0.0 1.7 0.00 0.00 0.00 40 1010.3
20260504204236 70 132 0.0 1.7 0.00 0.00 0.00 41 1010.4
20260504203736 70 130 0.0 0.9 0.00 0.00 0.00 41 1010.5
20260504203236 70 131 0.0 1.7 0.00 0.00 0.00 39 1010.4
20260504202736 69 130 0.0 1.7 0.00 0.00 0.00 37 1010.4
20260504202235 69 83 0.0 0.9 0.00 0.00 0.00 32 1010.4
20260504201736 69 85 0.9 2.6 0.00 0.00 0.00 33 1010.4
20260504201233 70 84 0.9 2.6 0.00 0.00 0.00 30 1010.4
20260504200955 70 83 0.9 1.7 0.00 0.00 0.00 45 1010.5
20260504200233 70 83 0.0 1.7 0.00 0.00 0.00 43 1010.5
20260504195734 71 85 0.0 1.7 0.00 0.00 0.00 38 1010.5
20260504195233 71 83 0.0 1.7 0.00 0.00 0.00 44 1010.4
20260504194734 72 83 0.0 1.7 0.00 0.00 0.00 49 1010.4
20260504194234 72 80 0.0 1.7 0.00 0.00 0.00 52 1010.4
20260504193733 72 81 0.0 1.7 0.00 0.00 0.00 54 1010.5
20260504193233 72 81 0.0 1.7 0.00 0.00 0.00 54 1010.5
20260504192733 71 82 0.0 0.9 0.00 0.00 0.00 57 1010.6
20260504192233 71 81 0.0 0.0 0.00 0.00 0.00 50 1010.6
20260504191734 70 81 0.0 0.0 0.00 0.00 0.00 44 1010.7
20260504191727 69 82 0.0 0.0 0.00 0.00 0.00 31 1010.7
20260504190733 68 81 0.0 0.0 0.00 0.00 0.00 26 1010.7
20260504190233 67 81 0.0 0.0 0.00 0.00 0.00 27 1010.8
20260504185957 66 81 0.0 0.0 0.00 0.00 0.00 25 1010.8
20260504185232 65 81 0.0 0.9 0.00 0.00 0.00 18 1010.8
20260504184733 65 82 0.0 0.9 0.00 0.00 0.00 15 1010.8
20260504184233 65 81 0.0 0.9 0.00 0.00 0.00 19 1010.8
20260504183733 64 81 0.0 0.9 0.00 0.00 0.00 20 1010.7
20260504183233 64 82 0.0 1.7 0.00 0.00 0.00 13 1010.7
20260504182733 64 81 0.0 1.7 0.00 0.00 0.00 7 1010.8
20260504182233 64 82 0.0 1.7 0.00 0.00 0.00 5 1010.7
20260504181733 63 84 0.0 0.9 0.00 0.00 0.00 6 1010.7
20260504181455 63 84 0.0 0.9 0.00 0.00 0.00 7 1010.7
20260504180954 63 83 0.0 0.9 0.00 0.00 0.00 9 1010.8
20260504180234 63 83 0.0 0.9 0.00 0.00 0.00 9 1010.8
20260504175733 63 84 0.0 0.9 0.00 0.00 0.00 17 1010.9
20260504175233 63 84 0.0 0.9 0.00 0.00 0.00 19 1010.9
20260504174733 63 84 0.0 1.7 0.00 0.00 0.00 18 1010.9
20260504174229 63 85 0.0 1.7 0.00 0.00 0.00 19 1010.9
20260504173731 63 83 0.0 0.9 0.00 0.00 0.00 42 1010.9
20260504173231 62 83 0.0 1.7 0.00 0.00 0.00 35 1011.0
20260504172731 62 83 0.0 1.7 0.00 0.00 0.00 25 1010.9
20260504172230 61 85 0.0 0.9 0.00 0.00 0.00 5 1010.9
20260504171730 60 85 0.0 0.9 0.00 0.00 0.00 1 1010.9
20260504171231 60 85 0.0 0.0 0.00 0.00 0.00 100 1010.9
20260504170731 60 84 0.0 0.0 0.00 0.00 0.00 100 1010.9
20260504170231 60 84 0.0 0.9 0.00 0.00 0.00 100 1010.9
20260504160229 59 83 0.0 1.7 0.00 0.00 0.00 100 1010.8
20260504150729 58 50 0.9 1.7 0.00 0.00 0.00 100 1010.4
20260504150229 58 50 0.0 1.7 0.00 0.00 0.00 100 1010.4
20260504141225 58 27 0.0 0.0 0.00 0.00 0.00 100 1010.2
20260504140725 57 27 0.0 0.0 0.00 0.00 0.00 100 1010.2
20260504140225 57 27 0.0 0.0 0.00 0.00 0.00 100 1010.1
20260504130726 55 27 0.0 0.0 0.00 0.00 0.00 100 1009.9
20260504130225 55 27 0.0 0.0 0.00 0.00 0.00 100 1009.8